Location: Newark
(44.6768°N, 22.5302°E)
Time: 14:33:53
(UTC+00:00)

AO-92 - Pass Details

Date: 05 July 2022
Orbit: 469 x 481 km, 97.4° (Epoch: 17 August)

Event Time Altitude Azimuth Distance (km) Brightness Sun altitude
Exits shadow 19:29:20 11° 104° (ESE) 1,601 ? -10.5°
Maximum altitude 19:31:26 17° 66° (ENE) 1,308 ? -10.7°
Drops below altitude 10° 19:33:45 10° 25° (NNE) 1,671 ? -11.0°
Sets 19:36:23 0° 5° (N) 2,559 ? -11.3°
